Home   Weather   Ilio   Past weeks

Flag for Greece Past Weather in Ilio, Greece — Yesterday and Last 2 Weeks

Now
52 °F

Scattered clouds.


Feels Like: 52 °F
Forecast: 41 / 52 °F
Wind: No wind

Location: Elefsis Airport

Current Time: Dec 6, 2016 at 10:31:53 am

Latest Report: Dec 6, 2016 at 9:50 am


Visibility: N/A

Pressure: 30.39 "Hg

Humidity: 54%

Dew Point: 36 °F

Location of IlioLocation

Past Weather in Ilio — Graph

°F

Ilio Temperature Yesterday

Maximum temperature yesterday: 57 °F (at 12:20 pm)
Minimum temperature yesterday: 48 °F (at 8:20 pm)
Average temperature yesterday: 53 °F

High & Low Weather Summary for the Past Weeks

 TemperatureHumidityPressure
High66 °F (Nov 22, 12:50 pm)94% (Nov 27, 1:20 am)30.51 "Hg (Nov 27, 1:20 am)
Low37 °F (Dec 2, 6:20 am)30% (Dec 1, 1:50 pm)29.74 "Hg (Nov 28, 5:20 pm)
Average54 °F66%30.12 "Hg
* Reported Nov 21 9:20 am — Dec 6 9:20 am, Ilio, Weather by CustomWeather, © 2016

Note: Actual official high and low records may vary slightly from our data, if they occured in-between our weather recording intervals... More about our weather records

Advertising

Ilio Weather History for the Previous 24 Hours

Scroll right to see more
 ConditionsComfort  
Time TempWeatherWind HumidityBarometerVisibility
9:20 am
Tue, Dec 6
50 °FPassing clouds.No wind62%30.39 "HgN/A
8:50 am46 °FPassing clouds.No wind71%30.39 "HgN/A
8:20 am45 °FScattered clouds.5 mph76%30.39 "HgN/A
7:50 am41 °FPassing clouds.5 mph81%30.36 "HgN/A
7:20 am41 °FPassing clouds.3 mph76%30.39 "HgN/A
6:50 am45 °FPassing clouds.No wind71%30.39 "HgN/A
6:20 am46 °FPassing clouds.5 mph66%30.36 "HgN/A
5:50 am45 °FPassing clouds.6 mph71%30.36 "HgN/A
5:20 am46 °FPassing clouds.6 mph66%30.36 "HgN/A
4:50 am46 °FPassing clouds.6 mph66%30.39 "HgN/A
4:20 am46 °FPassing clouds.6 mph66%30.39 "HgN/A
3:50 am46 °FPassing clouds.6 mph66%30.39 "HgN/A
3:20 am46 °FPassing clouds.9 mph66%30.39 "HgN/A
2:50 am48 °FPassing clouds.9 mph62%30.39 "HgN/A
2:20 am46 °FPassing clouds.9 mph66%30.39 "HgN/A
1:50 am48 °FPassing clouds.9 mph62%30.42 "HgN/A
1:20 am48 °FPassing clouds.6 mph62%30.42 "HgN/A
12:50 am46 °FPassing clouds.9 mph66%30.42 "HgN/A
12:20 am46 °FPassing clouds.8 mph66%30.42 "HgN/A
11:50 pm
Mon, Dec 5
48 °FPassing clouds.9 mph62%30.42 "HgN/A
11:20 pm48 °FPassing clouds.10 mph58%30.42 "HgN/A
10:50 pm48 °FPassing clouds.9 mph58%30.45 "HgN/A
10:20 pm48 °FPassing clouds.10 mph58%30.45 "HgN/A
9:50 pm48 °FPassing clouds.8 mph58%30.45 "HgN/A
9:20 pm50 °FPassing clouds.10 mph54%30.45 "HgN/A
8:50 pm48 °FPassing clouds.8 mph58%30.45 "HgN/A
8:20 pm48 °FPassing clouds.8 mph58%30.45 "HgN/A
7:50 pm50 °FPassing clouds.8 mph54%30.45 "HgN/A
7:20 pm50 °FPassing clouds.8 mph54%30.42 "HgN/A
6:50 pm50 °FPassing clouds.12 mph54%30.42 "HgN/A
6:20 pm52 °FPassing clouds.12 mph50%30.42 "HgN/A
5:20 pm52 °FPassing clouds.13 mph50%30.51 "HgN/A
4:50 pm54 °FPassing clouds.16 mph47%30.42 "HgN/A
4:20 pm55 °FPassing clouds.13 mph47%30.39 "HgN/A
3:50 pm55 °FPassing clouds.13 mph47%30.39 "HgN/A
3:20 pm57 °FPassing clouds.12 mph48%30.39 "HgN/A
2:50 pm57 °FPassing clouds.12 mph48%30.39 "HgN/A
2:20 pm57 °FPassing clouds.15 mph51%30.39 "HgN/A
1:50 pm57 °FPassing clouds.15 mph51%30.39 "HgN/A
1:20 pm57 °FScattered clouds.16 mph48%30.39 "HgN/A
12:50 pm57 °FScattered clouds.16 mph48%30.39 "HgN/A
12:20 pm57 °FScattered clouds.9 mph51%30.39 "HgN/A
11:50 am55 °FBroken clouds.9 mph55%30.42 "HgN/A
10:50 am55 °FBroken clouds.8 mph55%30.42 "HgN/A
10:20 am54 °FPartly sunny.6 mph58%30.42 "HgN/A
Weather by CustomWeather, © 2016

See weather overviewHow to use our weather pages